CHH7092 ZPPP-ZJHK

Flight info

Callsign CHH7092
Flight time 1h 29m
Altitude 37100
Route LXI A599 BSE R339 BHY W70 NYB
Aircraft B38M/M-SDE1FGHILORVWXY/HB1

Departure

Time 2026-04-28 13:13
Airport Kunming Changshui International Airport (ZPPP)

Arrival

Time 2026-04-28 14:42
Airport Haikou Meilan International Airport (ZJHK)
Time Latitude Longitude Altitude Speed Heading
2026-04-28 12:47 25.10568 102.93024 6903 ft 0 kts 250°
2026-04-28 13:01 25.10569 102.93026 6903 ft 3 kts 251°
2026-04-28 13:01 25.10577 102.93054 6921 ft 4 kts 255°
2026-04-28 13:01 25.10583 102.93083 6903 ft 4 kts 263°
2026-04-28 13:01 25.10583 102.93112 6903 ft 4 kts 285°
2026-04-28 13:02 25.10572 102.93130 6903 ft 2 kts 343°
2026-04-28 13:02 25.10570 102.93130 6903 ft 1 kts 344°
2026-04-28 13:05 25.10571 102.93130 6903 ft 0 kts 344°
2026-04-28 13:06 25.10585 102.93126 6903 ft 5 kts 344°
2026-04-28 13:06 25.10644 102.93108 6903 ft 12 kts 344°
2026-04-28 13:06 25.10743 102.93075 6912 ft 17 kts 342°
2026-04-28 13:06 25.10824 102.93037 6917 ft 13 kts 317°
2026-04-28 13:07 25.10881 102.92962 6907 ft 13 kts 308°
2026-04-28 13:07 25.10937 102.92885 6912 ft 13 kts 308°
2026-04-28 13:07 25.10994 102.92806 6909 ft 13 kts 308°
2026-04-28 13:07 25.11033 102.92752 6920 ft 14 kts 308°
2026-04-28 13:08 25.11053 102.92663 6917 ft 13 kts 231°
2026-04-28 13:08 25.10958 102.92578 6907 ft 14 kts 218°
2026-04-28 13:08 25.10877 102.92508 6908 ft 16 kts 218°
2026-04-28 13:08 25.10784 102.92427 6908 ft 17 kts 218°
2026-04-28 13:09 25.10689 102.92344 6913 ft 17 kts 218°
2026-04-28 13:09 25.10625 102.92288 6912 ft 17 kts 218°
2026-04-28 13:09 25.10498 102.92179 6910 ft 17 kts 218°
2026-04-28 13:09 25.10435 102.92123 6910 ft 18 kts 218°
2026-04-28 13:10 25.10338 102.92039 6910 ft 18 kts 218°
2026-04-28 13:10 25.10240 102.91953 6911 ft 18 kts 218°
2026-04-28 13:10 25.10159 102.91882 6915 ft 11 kts 221°
2026-04-28 13:10 25.10146 102.91818 6918 ft 8 kts 303°
2026-04-28 13:11 25.10179 102.91776 6920 ft 7 kts 312°
2026-04-28 13:11 25.10213 102.91734 6918 ft 7 kts 311°
2026-04-28 13:11 25.10257 102.91723 6911 ft 7 kts 36°
2026-04-28 13:11 25.10266 102.91730 6915 ft 1 kts 39°
2026-04-28 13:12 25.10342 102.91796 6912 ft 42 kts 38°
2026-04-28 13:12 25.10747 102.92149 6916 ft 105 kts 38°
2026-04-28 13:12 25.11464 102.92773 6907 ft 158 kts 38°
2026-04-28 13:12 25.12440 102.93617 6966 ft 193 kts 38°
2026-04-28 13:13 25.13515 102.94540 7517 ft 202 kts 34°
2026-04-28 13:13 25.14825 102.95255 7966 ft 218 kts 16°
2026-04-28 13:13 25.16255 102.95857 8627 ft 221 kts 15°
2026-04-28 13:13 25.17742 102.96488 9064 ft 239 kts 17°
2026-04-28 13:14 25.19364 102.97198 9373 ft 263 kts 18°
2026-04-28 13:14 25.21047 102.98228 9797 ft 286 kts 41°
2026-04-28 13:14 25.22131 103.00041 10669 ft 289 kts 72°
2026-04-28 13:14 25.22264 103.02253 11426 ft 293 kts 102°
2026-04-28 13:15 25.21534 103.04376 12051 ft 303 kts 122°
2026-04-28 13:15 25.20208 103.06250 12466 ft 318 kts 141°
2026-04-28 13:15 25.18502 103.07904 12922 ft 336 kts 140°
2026-04-28 13:15 25.16749 103.09689 13532 ft 349 kts 139°
2026-04-28 13:16 25.14956 103.11539 14301 ft 355 kts 139°
2026-04-28 13:16 25.13152 103.13407 15115 ft 357 kts 139°
2026-04-28 13:16 25.11338 103.15291 15949 ft 359 kts 140°
2026-04-28 13:16 25.09514 103.17185 16732 ft 362 kts 139°
2026-04-28 13:17 25.07670 103.19102 17519 ft 366 kts 140°
2026-04-28 13:17 25.05803 103.21041 18241 ft 370 kts 140°
2026-04-28 13:17 25.03941 103.22975 18874 ft 373 kts 139°
2026-04-28 13:17 25.02039 103.24949 19471 ft 377 kts 140°
2026-04-28 13:18 25.00110 103.26949 20080 ft 381 kts 139°
2026-04-28 13:18 24.98170 103.28962 20636 ft 385 kts 140°
2026-04-28 13:18 24.96205 103.30997 21220 ft 389 kts 140°
2026-04-28 13:18 24.94221 103.33052 21794 ft 393 kts 140°
2026-04-28 13:19 24.92214 103.35130 22335 ft 397 kts 140°
2026-04-28 13:19 24.90189 103.37226 22885 ft 401 kts 140°
2026-04-28 13:19 24.88142 103.39342 23418 ft 405 kts 140°
2026-04-28 13:19 24.86103 103.41450 23893 ft 409 kts 140°
2026-04-28 13:20 24.84019 103.43603 24352 ft 412 kts 140°
2026-04-28 13:20 24.81923 103.45769 24824 ft 415 kts 140°
2026-04-28 13:20 24.79807 103.47953 25274 ft 418 kts 140°
2026-04-28 13:20 24.77679 103.50148 25710 ft 421 kts 140°
2026-04-28 13:21 24.75537 103.52357 26200 ft 422 kts 140°
2026-04-28 13:21 24.73389 103.54570 26659 ft 424 kts 140°
2026-04-28 13:21 24.71227 103.56798 27092 ft 427 kts 140°
2026-04-28 13:21 24.69076 103.59013 27507 ft 430 kts 140°
2026-04-28 13:22 24.66857 103.61296 27931 ft 433 kts 140°
2026-04-28 13:22 24.64652 103.63564 28332 ft 436 kts 140°
2026-04-28 13:22 24.62434 103.65844 28722 ft 438 kts 140°
2026-04-28 13:22 24.60234 103.68105 29129 ft 440 kts 140°
2026-04-28 13:23 24.57988 103.70412 29507 ft 443 kts 140°
2026-04-28 13:23 24.55808 103.72818 29888 ft 449 kts 131°
2026-04-28 13:23 24.54176 103.75769 30267 ft 457 kts 115°
2026-04-28 13:23 24.53239 103.79119 30581 ft 462 kts 105°
2026-04-28 13:24 24.52465 103.82556 30860 ft 465 kts 105°
2026-04-28 13:24 24.51700 103.86024 31173 ft 468 kts 106°
2026-04-28 13:24 24.50949 103.89503 31550 ft 468 kts 106°
2026-04-28 13:24 24.50203 103.92989 31865 ft 470 kts 106°
2026-04-28 13:25 24.49455 103.96492 32169 ft 473 kts 106°
2026-04-28 13:25 24.48703 104.00016 32484 ft 475 kts 106°
2026-04-28 13:25 24.47945 104.03560 32790 ft 477 kts 106°
2026-04-28 13:25 24.47184 104.07116 33096 ft 480 kts 106°
2026-04-28 13:26 24.46436 104.10603 33427 ft 482 kts 106°
2026-04-28 13:26 24.45665 104.14198 33700 ft 485 kts 106°
2026-04-28 13:26 24.44889 104.17808 34010 ft 487 kts 106°
2026-04-28 13:26 24.44119 104.21388 34257 ft 489 kts 106°
2026-04-28 13:27 24.43337 104.25019 34600 ft 488 kts 107°
2026-04-28 13:27 24.42557 104.28639 34998 ft 486 kts 107°
2026-04-28 13:27 24.41777 104.32251 35341 ft 486 kts 107°
2026-04-28 13:27 24.40997 104.35860 35658 ft 486 kts 107°
2026-04-28 13:28 24.40217 104.39463 35972 ft 485 kts 107°
2026-04-28 13:28 24.39438 104.43062 36277 ft 485 kts 107°
2026-04-28 13:28 24.38656 104.46664 36584 ft 485 kts 107°
2026-04-28 13:28 24.37873 104.50267 36860 ft 485 kts 107°
2026-04-28 13:29 24.37090 104.53864 37036 ft 486 kts 107°
2026-04-28 13:29 24.35535 104.61003 36972 ft 481 kts 107°
2026-04-28 13:30 24.33972 104.68158 37031 ft 484 kts 107°
2026-04-28 13:30 24.32402 104.75329 36999 ft 482 kts 107°
2026-04-28 13:31 24.30053 104.86029 37005 ft 483 kts 107°
2026-04-28 13:31 24.28475 104.93191 36976 ft 483 kts 107°
2026-04-28 13:32 24.26902 105.00314 36978 ft 479 kts 107°
2026-04-28 13:32 24.25332 105.07413 36976 ft 480 kts 107°
2026-04-28 13:33 24.23753 105.14539 36966 ft 481 kts 107°
2026-04-28 13:33 24.22153 105.21648 36971 ft 480 kts 108°
2026-04-28 13:34 24.20441 105.28694 36971 ft 481 kts 108°
2026-04-28 13:34 24.18735 105.35760 36972 ft 479 kts 109°
2026-04-28 13:35 24.17033 105.42801 36970 ft 478 kts 109°
2026-04-28 13:35 24.15337 105.49804 36985 ft 479 kts 109°
2026-04-28 13:36 24.13627 105.56847 36947 ft 478 kts 109°
2026-04-28 13:36 24.11915 105.63882 36974 ft 479 kts 109°
2026-04-28 13:37 24.10273 105.70949 36974 ft 479 kts 106°
2026-04-28 13:37 24.08893 105.78084 36950 ft 478 kts 107°
2026-04-28 13:38 24.07473 105.85225 36974 ft 479 kts 107°
2026-04-28 13:38 24.06061 105.92299 36939 ft 478 kts 107°
2026-04-28 13:39 24.04632 105.99432 36965 ft 481 kts 107°
2026-04-28 13:39 24.03203 106.06556 36958 ft 477 kts 107°
2026-04-28 13:40 24.01784 106.13610 36952 ft 477 kts 107°
2026-04-28 13:40 24.00357 106.20696 36945 ft 476 kts 107°
2026-04-28 13:41 23.98920 106.27789 36951 ft 478 kts 107°
2026-04-28 13:41 23.97482 106.34887 36925 ft 477 kts 107°
2026-04-28 13:42 23.96041 106.41979 36940 ft 478 kts 107°
2026-04-28 13:42 23.94605 106.49027 36948 ft 478 kts 107°
2026-04-28 13:43 23.93151 106.56123 36949 ft 477 kts 109°
2026-04-28 13:43 23.92033 106.59489 36922 ft 466 kts 124°
2026-04-28 13:43 23.90191 106.62333 36959 ft 455 kts 136°
2026-04-28 13:44 23.85984 106.67544 36934 ft 457 kts 137°
2026-04-28 13:44 23.81685 106.72664 36942 ft 457 kts 138°
2026-04-28 13:45 23.77377 106.77722 36930 ft 457 kts 138°
2026-04-28 13:45 23.73025 106.82819 36940 ft 460 kts 138°
2026-04-28 13:46 23.68653 106.87934 36942 ft 460 kts 138°
2026-04-28 13:46 23.64290 106.93032 36930 ft 460 kts 138°
2026-04-28 13:47 23.59916 106.98139 36931 ft 461 kts 138°
2026-04-28 13:47 23.55535 107.03247 36932 ft 460 kts 138°
2026-04-28 13:48 23.51163 107.08340 36928 ft 461 kts 138°
2026-04-28 13:48 23.46774 107.13447 36932 ft 462 kts 138°
2026-04-28 13:49 23.42407 107.18524 36931 ft 461 kts 138°
2026-04-28 13:49 23.38013 107.23626 36944 ft 462 kts 139°
2026-04-28 13:50 23.33611 107.28733 36943 ft 462 kts 139°
2026-04-28 13:50 23.29210 107.33833 36934 ft 462 kts 139°
2026-04-28 13:51 23.24806 107.38931 36946 ft 462 kts 139°
2026-04-28 13:51 23.20395 107.44033 36949 ft 464 kts 138°
2026-04-28 13:52 23.15985 107.49128 36937 ft 464 kts 139°
2026-04-28 13:52 23.11563 107.54231 36940 ft 464 kts 139°
2026-04-28 13:53 23.07135 107.59337 36949 ft 464 kts 139°
2026-04-28 13:53 23.02699 107.64446 36939 ft 464 kts 139°
2026-04-28 13:54 22.98292 107.69522 36934 ft 465 kts 139°
2026-04-28 13:54 22.93861 107.74620 36934 ft 464 kts 139°
2026-04-28 13:55 22.90161 107.78872 36927 ft 465 kts 139°
2026-04-28 13:55 22.85702 107.83993 36955 ft 468 kts 139°
2026-04-28 13:56 22.81238 107.89116 36938 ft 466 kts 139°
2026-04-28 13:56 22.76802 107.94199 36945 ft 467 kts 139°
2026-04-28 13:57 22.72340 107.99308 36934 ft 466 kts 139°
2026-04-28 13:57 22.67878 108.04410 36930 ft 467 kts 139°
2026-04-28 13:58 22.63404 108.09523 36932 ft 467 kts 139°
2026-04-28 13:58 22.58946 108.14644 36923 ft 469 kts 136°
2026-04-28 13:59 22.54774 108.20100 36918 ft 470 kts 135°
2026-04-28 13:59 22.50593 108.25490 36936 ft 470 kts 136°
2026-04-28 14:00 22.46379 108.30904 36933 ft 470 kts 136°
2026-04-28 14:00 22.42171 108.36305 36937 ft 470 kts 136°
2026-04-28 14:01 22.37960 108.41703 36938 ft 470 kts 136°
2026-04-28 14:01 22.33737 108.47113 36922 ft 472 kts 135°
2026-04-28 14:02 22.29486 108.52550 36937 ft 474 kts 135°
2026-04-28 14:02 22.25230 108.57991 36941 ft 474 kts 135°
2026-04-28 14:03 22.20975 108.63423 36946 ft 474 kts 135°
2026-04-28 14:03 22.16744 108.68820 36946 ft 474 kts 135°
2026-04-28 14:04 22.12460 108.74281 36950 ft 474 kts 135°
2026-04-28 14:04 22.08219 108.79725 36946 ft 475 kts 135°
2026-04-28 14:05 22.03984 108.85156 36952 ft 477 kts 135°
2026-04-28 14:05 21.99717 108.90622 36952 ft 477 kts 135°
2026-04-28 14:06 21.95442 108.96091 36950 ft 478 kts 135°
2026-04-28 14:06 21.91153 109.01573 36957 ft 478 kts 135°
2026-04-28 14:07 21.86861 109.07054 36956 ft 478 kts 135°
2026-04-28 14:07 21.82581 109.12546 36950 ft 479 kts 134°
2026-04-28 14:08 21.78302 109.18038 36955 ft 477 kts 134°
2026-04-28 14:08 21.74067 109.23467 36950 ft 472 kts 135°
2026-04-28 14:09 21.69877 109.28835 36718 ft 466 kts 134°
2026-04-28 14:09 21.67783 109.31516 36058 ft 467 kts 134°
2026-04-28 14:09 21.65705 109.34173 35637 ft 462 kts 134°
2026-04-28 14:10 21.63649 109.36802 35199 ft 458 kts 134°
2026-04-28 14:10 21.61601 109.39421 34750 ft 454 kts 134°
2026-04-28 14:10 21.59549 109.41981 34302 ft 449 kts 138°
2026-04-28 14:10 21.57119 109.44006 33857 ft 438 kts 153°
2026-04-28 14:11 21.54526 109.45644 33318 ft 437 kts 153°
2026-04-28 14:11 21.51925 109.47304 32839 ft 434 kts 153°
2026-04-28 14:11 21.49320 109.48942 32345 ft 432 kts 153°
2026-04-28 14:11 21.46732 109.50552 31924 ft 428 kts 154°
2026-04-28 14:12 21.44163 109.52143 31480 ft 425 kts 154°
2026-04-28 14:12 21.41600 109.53727 31068 ft 422 kts 154°
2026-04-28 14:12 21.39067 109.55292 30654 ft 419 kts 154°
2026-04-28 14:12 21.36546 109.56850 30251 ft 416 kts 154°
2026-04-28 14:13 21.34044 109.58394 29841 ft 414 kts 154°
2026-04-28 14:13 21.31469 109.59683 29361 ft 403 kts 169°
2026-04-28 14:13 21.28743 109.60195 28932 ft 395 kts 176°
2026-04-28 14:13 21.26059 109.60626 28430 ft 395 kts 176°
2026-04-28 14:14 21.23349 109.61049 28021 ft 391 kts 176°
2026-04-28 14:14 21.20665 109.61451 27584 ft 389 kts 176°
2026-04-28 14:14 21.17989 109.61845 27188 ft 387 kts 176°
2026-04-28 14:14 21.15331 109.62230 26785 ft 384 kts 176°
2026-04-28 14:15 21.12691 109.62615 26415 ft 381 kts 176°
2026-04-28 14:15 21.10098 109.62991 26303 ft 370 kts 177°
2026-04-28 14:15 21.07578 109.63356 26193 ft 360 kts 177°
2026-04-28 14:15 21.05102 109.63715 26096 ft 361 kts 177°
2026-04-28 14:16 21.02574 109.64081 25969 ft 371 kts 177°
2026-04-28 14:16 20.99997 109.64454 25863 ft 376 kts 176°
2026-04-28 14:16 20.97389 109.64832 25758 ft 378 kts 176°
2026-04-28 14:16 20.94785 109.65208 25648 ft 378 kts 176°
2026-04-28 14:17 20.92209 109.65581 25543 ft 377 kts 176°
2026-04-28 14:17 20.89571 109.65962 25437 ft 377 kts 176°
2026-04-28 14:17 20.87009 109.66332 25332 ft 377 kts 176°
2026-04-28 14:17 20.84414 109.66707 25236 ft 376 kts 176°
2026-04-28 14:18 20.81820 109.67082 25143 ft 376 kts 176°
2026-04-28 14:18 20.79234 109.67455 25052 ft 375 kts 176°
2026-04-28 14:18 20.76649 109.67828 24963 ft 374 kts 176°
2026-04-28 14:18 20.75014 109.68065 24908 ft 374 kts 176°
2026-04-28 14:19 20.72430 109.68437 24829 ft 374 kts 176°
2026-04-28 14:19 20.69853 109.68809 24750 ft 373 kts 176°
2026-04-28 14:19 20.67284 109.69179 24670 ft 373 kts 176°
2026-04-28 14:19 20.64705 109.69550 24600 ft 372 kts 176°
2026-04-28 14:20 20.62138 109.69920 24515 ft 372 kts 176°
2026-04-28 14:20 20.59604 109.70285 24449 ft 372 kts 176°
2026-04-28 14:20 20.57039 109.70654 24377 ft 372 kts 176°
2026-04-28 14:20 20.54478 109.71023 24319 ft 371 kts 176°
2026-04-28 14:21 20.51888 109.71427 24256 ft 373 kts 172°
2026-04-28 14:21 20.49460 109.72445 24186 ft 380 kts 152°
2026-04-28 14:21 20.47365 109.74191 24141 ft 385 kts 143°
2026-04-28 14:21 20.45350 109.76013 24089 ft 385 kts 143°
2026-04-28 14:22 20.43310 109.77870 24034 ft 385 kts 143°
2026-04-28 14:22 20.41282 109.79732 23981 ft 385 kts 142°
2026-04-28 14:22 20.39253 109.81601 23851 ft 385 kts 142°
2026-04-28 14:22 20.37228 109.83469 23527 ft 384 kts 142°
2026-04-28 14:23 20.35206 109.85333 23052 ft 385 kts 142°
2026-04-28 14:23 20.33185 109.87198 22618 ft 383 kts 142°
2026-04-28 14:23 20.31172 109.89054 22223 ft 381 kts 142°
2026-04-28 14:23 20.29451 109.90641 21879 ft 380 kts 142°
2026-04-28 14:24 20.27457 109.92478 21462 ft 378 kts 142°
2026-04-28 14:24 20.25466 109.94312 21068 ft 377 kts 142°
2026-04-28 14:24 20.23490 109.96131 20696 ft 375 kts 142°
2026-04-28 14:24 20.21548 109.97918 20323 ft 373 kts 142°
2026-04-28 14:25 20.19587 109.99723 19945 ft 372 kts 142°
2026-04-28 14:25 20.17633 110.01520 19564 ft 370 kts 142°
2026-04-28 14:25 20.15690 110.03307 19184 ft 369 kts 142°
2026-04-28 14:25 20.13742 110.05097 18742 ft 370 kts 142°
2026-04-28 14:26 20.11795 110.06886 18373 ft 369 kts 142°
2026-04-28 14:26 20.09853 110.08669 17977 ft 368 kts 142°
2026-04-28 14:26 20.07919 110.10445 17561 ft 366 kts 142°
2026-04-28 14:26 20.06000 110.12206 17174 ft 364 kts 142°
2026-04-28 14:27 20.04112 110.13993 16765 ft 364 kts 136°
2026-04-28 14:27 20.02457 110.16027 16387 ft 362 kts 133°
2026-04-28 14:27 20.00805 110.18042 16028 ft 359 kts 134°
2026-04-28 14:27 19.99152 110.20031 15658 ft 357 kts 134°
2026-04-28 14:28 19.97501 110.21998 15270 ft 355 kts 135°
2026-04-28 14:28 19.95854 110.23952 14915 ft 354 kts 135°
2026-04-28 14:28 19.94213 110.25895 14547 ft 352 kts 135°
2026-04-28 14:28 19.92599 110.27804 14176 ft 351 kts 134°
2026-04-28 14:29 19.91005 110.29687 13821 ft 349 kts 134°
2026-04-28 14:29 19.89381 110.31605 13438 ft 348 kts 134°
2026-04-28 14:29 19.87767 110.33510 13038 ft 346 kts 134°
2026-04-28 14:29 19.86175 110.35419 12659 ft 345 kts 130°
2026-04-28 14:30 19.85086 110.37688 12227 ft 349 kts 106°
2026-04-28 14:30 19.84892 110.40244 11874 ft 347 kts 89°
2026-04-28 14:30 19.84936 110.42790 11549 ft 344 kts 90°
2026-04-28 14:30 19.84952 110.45319 11201 ft 342 kts 91°
2026-04-28 14:31 19.84961 110.47835 10841 ft 340 kts 91°
2026-04-28 14:31 19.84968 110.50343 10481 ft 338 kts 91°
2026-04-28 14:31 19.84974 110.52842 10130 ft 337 kts 91°
2026-04-28 14:31 19.84979 110.55316 9929 ft 330 kts 91°
2026-04-28 14:32 19.84983 110.57723 9748 ft 323 kts 91°
2026-04-28 14:32 19.84988 110.60074 9394 ft 322 kts 91°
2026-04-28 14:32 19.84992 110.62451 9025 ft 322 kts 91°
2026-04-28 14:32 19.84995 110.64823 8687 ft 320 kts 91°
2026-04-28 14:33 19.84998 110.67189 8343 ft 319 kts 91°
2026-04-28 14:33 19.85001 110.69538 8023 ft 317 kts 91°
2026-04-28 14:33 19.85004 110.71819 7847 ft 300 kts 91°
2026-04-28 14:33 19.85006 110.73976 7720 ft 283 kts 92°
2026-04-28 14:34 19.85021 110.77939 7419 ft 254 kts 88°
2026-04-28 14:34 19.85513 110.79704 7159 ft 250 kts 56°
2026-04-28 14:34 19.86268 110.80603 7018 ft 245 kts 36°
2026-04-28 14:35 19.88330 110.81410 6666 ft 236 kts 359°
2026-04-28 14:35 19.89913 110.81106 6337 ft 230 kts 330°
2026-04-28 14:35 19.91139 110.80065 6020 ft 225 kts 307°
2026-04-28 14:35 19.92003 110.78696 5716 ft 222 kts 294°
2026-04-28 14:36 19.92535 110.77165 5385 ft 221 kts 281°
2026-04-28 14:36 19.92845 110.75556 5057 ft 223 kts 277°
2026-04-28 14:36 19.93129 110.73940 4796 ft 222 kts 281°
2026-04-28 14:36 19.93405 110.72343 4587 ft 218 kts 274°
2026-04-28 14:37 19.93513 110.70735 4273 ft 219 kts 269°
2026-04-28 14:37 19.93541 110.69100 3939 ft 223 kts 267°
2026-04-28 14:37 19.93540 110.67453 3615 ft 222 kts 266°
2026-04-28 14:37 19.93535 110.65849 3326 ft 217 kts 265°
2026-04-28 14:38 19.93529 110.64260 3026 ft 213 kts 265°
2026-04-28 14:38 19.93523 110.62701 2735 ft 209 kts 266°
2026-04-28 14:38 19.93521 110.61174 2448 ft 204 kts 266°
2026-04-28 14:38 19.93517 110.59705 2184 ft 193 kts 265°
2026-04-28 14:39 19.93513 110.58301 1974 ft 187 kts 265°
2026-04-28 14:39 19.93510 110.56942 1738 ft 180 kts 265°
2026-04-28 14:39 19.93505 110.55620 1489 ft 179 kts 265°
2026-04-28 14:39 19.93503 110.54310 1247 ft 172 kts 266°
2026-04-28 14:40 19.93499 110.53097 1057 ft 155 kts 265°
2026-04-28 14:40 19.93497 110.52710 1012 ft 154 kts 265°
2026-04-28 14:40 19.93489 110.50818 679 ft 155 kts 267°
2026-04-28 14:40 19.93487 110.50059 538 ft 154 kts 270°
2026-04-28 14:41 19.93494 110.48555 286 ft 151 kts 266°
2026-04-28 14:41 19.93486 110.47454 97 ft 148 kts 267°
2026-04-28 14:41 19.93477 110.46506 78 ft 96 kts 271°
2026-04-28 14:41 19.93480 110.46126 82 ft 60 kts 270°
2026-04-28 14:42 19.93499 110.45772 88 ft 25 kts 290°
2026-04-28 14:42 19.93542 110.45680 86 ft 18 kts 299°
2026-04-28 14:42 19.93596 110.45577 85 ft 16 kts 299°
2026-04-28 14:42 19.93649 110.45462 84 ft 19 kts 288°
2026-04-28 14:43 19.93658 110.45344 87 ft 15 kts 270°
2026-04-28 14:43 19.93657 110.45227 87 ft 17 kts 270°
2026-04-28 14:43 19.93658 110.45119 87 ft 12 kts 274°
2026-04-28 14:43 19.93726 110.45084 84 ft 13 kts 360°
2026-04-28 14:44 19.93828 110.45083 87 ft 16 kts 360°
2026-04-28 14:44 19.93953 110.45083 83 ft 20 kts 360°
2026-04-28 14:44 19.94102 110.45082 68 ft 23 kts 360°
2026-04-28 14:44 19.94280 110.45081 71 ft 28 kts 360°
2026-04-28 14:45 19.94431 110.45080 68 ft 23 kts 360°
2026-04-28 14:45 19.94571 110.45080 61 ft 15 kts 360°
2026-04-28 14:45 19.94663 110.45079 57 ft 14 kts 360°
2026-04-28 14:45 19.94776 110.45079 57 ft 16 kts 360°
2026-04-28 14:46 19.94872 110.45079 54 ft 13 kts 360°
2026-04-28 14:46 19.94904 110.45117 56 ft 8 kts 92°
2026-04-28 14:46 19.94884 110.45182 57 ft 10 kts 128°
2026-04-28 14:46 19.94843 110.45227 57 ft 8 kts 134°
2026-04-28 14:47 19.94800 110.45273 58 ft 8 kts 134°
2026-04-28 14:47 19.94777 110.45315 55 ft 7 kts 82°
2026-04-28 14:47 19.94806 110.45358 60 ft 8 kts 50°
2026-04-28 14:47 19.94817 110.45371 60 ft 4 kts 50°
2026-04-28 14:48 19.94826 110.45383 55 ft 1 kts 50°
2026-04-28 14:48 19.94830 110.45388 56 ft 0 kts 50°